GW2459 Weather Reports


Display with metric or nautical units.
time (UTC)temp
F
wind
direction
speed
MPH
gust
MPH
rain 1hr
in
rain 24hr
in
rain mn
in
humidity
%
barometer
mb
20260506051133 59 138 0.0 0.0 0.00 0.00 0.00 79 1015.5
20260506050632 59 130 0.0 0.0 0.00 0.00 0.00 79 1015.5
20260506050128 59 142 0.0 0.0 0.00 0.00 0.00 78 1015.6
20260506045121 59 149 0.0 0.0 0.00 0.00 0.00 78 1015.3
20260506044619 59 160 0.0 0.0 0.00 0.00 0.00 77 1015.5
20260506044116 59 165 0.0 0.0 0.00 0.00 0.00 77 1015.5
20260506043613 60 168 0.0 0.0 0.00 0.00 0.00 76 1015.5
20260506043111 60 174 0.0 0.0 0.00 0.00 0.00 76 1015.4
20260506042610 60 176 0.0 0.0 0.00 0.00 0.00 76 1015.2
20260506042108 60 181 0.0 0.0 0.00 0.00 0.00 76 1015.2
20260506041606 60 180 0.0 0.0 0.00 0.00 0.00 76 1015.3
20260506041102 60 181 0.0 0.0 0.00 0.00 0.00 76 1015.1
20260506040601 60 185 0.0 0.0 0.00 0.00 0.00 75 1015.1
20260506040056 60 184 0.0 0.0 0.00 0.00 0.00 75 1015.3
20260506035553 60 185 0.0 0.0 0.00 0.00 0.00 75 1015.0
20260506035050 60 191 0.0 0.0 0.00 0.00 0.00 75 1014.8
20260506034548 60 177 0.0 0.0 0.00 0.00 0.00 75 1014.8
20260506034044 60 168 0.0 0.0 0.00 0.00 0.00 74 1014.9
20260506033542 61 166 0.0 0.0 0.00 0.00 0.00 74 1014.8
20260506033038 61 155 0.0 0.0 0.00 0.00 0.00 74 1014.8
20260506032536 61 162 0.0 0.0 0.00 0.00 0.00 73 1014.8
20260506032032 61 151 0.0 0.0 0.00 0.00 0.00 72 1014.7
20260506031530 62 144 0.0 0.0 0.00 0.00 0.00 71 1014.5
20260506031027 62 172 0.0 0.0 0.00 0.00 0.00 71 1014.6
20260506030525 62 179 0.0 0.0 0.00 0.00 0.00 70 1014.4
20260506030022 62 148 0.0 0.0 0.00 0.00 0.00 70 1014.6
20260506025519 62 196 3.0 3.0 0.00 0.00 0.00 69 1014.6
20260506025015 63 183 4.0 5.0 0.00 0.00 0.00 69 1014.6
20260506024512 63 192 0.0 0.0 0.00 0.00 0.00 68 1014.6
20260506024008 63 188 3.0 3.0 0.00 0.00 0.00 68 1014.6
20260506023505 64 204 3.0 5.0 0.00 0.00 0.00 67 1014.4
20260506023002 64 187 0.0 0.0 0.00 0.00 0.00 66 1014.4
20260506022500 64 190 5.0 6.0 0.00 0.00 0.00 66 1014.5
20260506021957 64 205 2.0 2.0 0.00 0.00 0.00 67 1014.5
20260506021454 64 166 1.0 2.0 0.00 0.00 0.00 67 1014.5
20260506020951 65 209 3.0 3.0 0.00 0.00 0.00 66 1014.5
20260506020449 65 196 3.0 3.0 0.00 0.00 0.00 65 1014.6
20260506015946 65 207 3.0 3.0 0.00 0.00 0.00 64 1014.3
20260506015443 65 182 2.0 3.0 0.00 0.00 0.00 64 1014.6
20260506014940 65 182 2.0 3.0 0.00 0.00 0.00 64 1014.5
20260506014437 65 204 2.0 3.0 0.00 0.00 0.00 65 1014.5
20260506013933 65 259 5.0 6.0 0.00 0.00 0.00 64 1014.6
20260506013432 66 242 3.0 3.0 0.00 0.00 0.00 64 1014.4
20260506012928 66 181 2.0 2.0 0.00 0.00 0.00 64 1014.4
20260506012424 66 169 0.0 0.0 0.00 0.00 0.00 64 1014.3
20260506011921 66 206 2.0 2.0 0.00 0.00 0.00 64 1014.5
20260506011419 66 188 2.0 2.0 0.00 0.00 0.00 65 1014.5
20260506010915 67 196 2.0 2.0 0.00 0.00 0.00 63 1014.6
20260506010414 67 281 5.0 7.0 0.00 0.00 0.00 62 1014.5
20260506005910 66 237 3.0 3.0 0.00 0.00 0.00 64 1014.5
20260506005408 67 211 6.0 7.0 0.00 0.00 0.00 63 1014.5
20260506004903 67 214 1.0 1.0 0.00 0.00 0.00 62 1014.4
20260506004401 66 280 3.0 3.0 0.00 0.00 0.00 63 1014.3
20260506003857 67 195 2.0 3.0 0.00 0.00 0.00 62 1014.4
20260506003353 67 165 2.0 2.0 0.00 0.00 0.00 62 1014.3
20260506002850 68 213 5.0 6.0 0.00 0.00 0.00 62 1014.5
20260506002346 68 214 5.0 6.0 0.00 0.00 0.00 61 1014.2
20260506001842 68 211 5.0 7.0 0.00 0.00 0.00 61 1014.5
20260506001339 68 203 1.0 2.0 0.00 0.00 0.00 61 1014.4
20260506000836 68 222 0.0 0.0 0.00 0.00 0.00 61 1014.6
20260506000334 67 194 2.0 3.0 0.00 0.00 0.00 62 1014.4
20260505235830 67 255 3.0 3.0 0.00 0.00 0.00 64 1014.5
20260505235328 68 239 3.0 5.0 0.00 0.00 0.00 62 1014.6
20260505234824 68 252 3.0 3.0 0.00 0.00 0.00 63 1014.6
20260505234323 68 272 3.0 5.0 0.00 0.00 0.00 61 1014.7
20260505233819 68 209 4.0 5.0 0.00 0.00 0.00 63 1014.8
20260505233317 67 208 3.0 3.0 0.00 0.00 0.00 64 1014.8
20260505232814 67 275 1.0 2.0 0.00 0.00 0.00 65 1014.9
20260505232312 67 288 5.0 6.0 0.00 0.00 0.00 64 1014.9
20260505231808 68 177 0.0 1.0 0.00 0.00 0.00 63 1015.1
20260505231307 66 275 6.0 7.0 0.00 0.00 0.00 65 1015.0
20260505230804 67 270 5.0 7.0 0.00 0.00 0.00 64 1015.0
20260505230301 68 231 2.0 2.0 0.00 0.00 0.00 63 1015.1
20260505225757 67 277 1.0 2.0 0.00 0.00 0.00 64 1015.1
20260505225255 68 209 2.0 3.0 0.00 0.00 0.00 62 1015.1
20260505224749 68 269 3.0 5.0 0.00 0.00 0.00 62 1015.4
20260505224248 66 274 2.0 3.0 0.00 0.00 0.00 64 1015.3
20260505223745 68 261 5.0 6.0 0.00 0.00 0.00 63 1015.1
20260505223241 67 208 4.0 5.0 0.00 0.00 0.00 64 1015.2
20260505222737 66 242 5.0 6.0 0.00 0.00 0.00 65 1015.3
20260505222234 66 273 7.0 9.0 0.00 0.00 0.00 67 1015.2
20260505221731 66 266 7.0 9.0 0.00 0.00 0.00 66 1015.4
20260505221227 66 235 3.0 5.0 0.00 0.00 0.00 66 1015.3
20260505220724 66 271 7.0 8.0 0.00 0.00 0.00 65 1015.4
20260505220222 66 307 10.0 11.0 0.00 0.00 0.00 66 1015.4
20260505215720 66 296 11.0 13.0 0.00 0.00 0.00 65 1015.3
20260505215217 66 254 6.0 6.0 0.00 0.00 0.00 66 1015.4
20260505214715 66 268 7.0 8.0 0.00 0.00 0.00 66 1015.5
20260505214212 67 272 4.0 6.0 0.00 0.00 0.00 63 1015.4
20260505213709 67 136 3.0 5.0 0.00 0.00 0.00 65 1015.4
20260505213207 66 242 7.0 8.0 0.00 0.00 0.00 66 1015.5
20260505212702 67 264 7.0 10.0 0.00 0.00 0.00 64 1015.4
20260505212200 67 191 4.0 5.0 0.00 0.00 0.00 64 1015.6
20260505211657 68 263 7.0 8.0 0.00 0.00 0.00 63 1015.6
20260505211154 67 272 5.0 6.0 0.00 0.00 0.00 65 1015.6
20260505210650 67 256 6.0 7.0 0.00 0.00 0.00 65 1015.7
20260505210147 66 221 3.0 5.0 0.00 0.00 0.00 65 1015.8
20260505205645 66 238 5.0 6.0 0.00 0.00 0.00 65 1015.8
20260505205143 66 196 2.0 2.0 0.00 0.00 0.00 67 1015.8
20260505204639 66 200 7.0 9.0 0.00 0.00 0.00 66 1015.9
20260505204137 66 185 2.0 3.0 0.00 0.00 0.00 66 1015.9
20260505203634 66 206 3.0 3.0 0.00 0.00 0.00 67 1015.8
20260505203131 66 152 2.0 3.0 0.00 0.00 0.00 66 1015.8
20260505202626 65 269 3.0 7.0 0.00 0.00 0.00 68 1016.0
20260505202123 64 251 4.0 6.0 0.00 0.00 0.00 71 1015.8
20260505201619 64 216 3.0 6.0 0.00 0.00 0.00 69 1015.9
20260505201117 64 251 6.0 7.0 0.00 0.00 0.00 71 1016.0
20260505200615 65 197 5.0 7.0 0.00 0.00 0.00 69 1016.0
20260505200112 65 225 1.0 2.0 0.00 0.00 0.00 68 1016.0
20260505195608 65 196 3.0 3.0 0.00 0.00 0.00 67 1016.1
20260505195106 64 256 3.0 3.0 0.00 0.00 0.00 69 1016.2
20260505194603 64 189 3.0 5.0 0.00 0.00 0.00 71 1016.1
20260505194058 63 199 4.0 5.0 0.00 0.00 0.00 71 1016.1
20260505193555 63 226 3.0 5.0 0.00 0.00 0.00 72 1016.0
20260505193052 62 278 5.0 6.0 0.00 0.00 0.00 74 1016.0
20260505192551 63 266 5.0 6.0 0.00 0.00 0.00 73 1016.3
20260505192048 62 200 2.0 5.0 0.00 0.00 0.00 74 1016.1
20260505191546 63 206 3.0 5.0 0.00 0.00 0.00 74 1016.2
20260505191044 63 285 5.0 7.0 0.00 0.00 0.00 74 1016.1
20260505190538 62 247 2.0 3.0 0.00 0.00 0.00 75 1016.1
20260505190034 63 257 3.0 5.0 0.00 0.00 0.00 73 1016.1
20260505185531 62 264 5.0 6.0 0.00 0.00 0.00 76 1016.1
20260505185028 62 238 5.0 6.0 0.00 0.00 0.00 75 1016.3
20260505184525 63 297 6.0 7.0 0.00 0.00 0.00 76 1015.9
20260505184021 63 181 3.0 5.0 0.00 0.00 0.00 72 1016.1
20260505183518 62 286 4.0 5.0 0.00 0.00 0.00 75 1016.0
20260505183016 62 264 5.0 6.0 0.00 0.00 0.00 76 1015.9
20260505182512 63 289 5.0 6.0 0.00 0.00 0.00 74 1016.1
20260505182009 63 262 4.0 5.0 0.00 0.00 0.00 75 1016.1
20260505181505 63 282 4.0 5.0 0.00 0.00 0.00 74 1015.9
20260505181003 62 267 6.0 8.0 0.00 0.00 0.00 75 1016.0
20260505180458 63 186 0.0 0.0 0.00 0.00 0.00 74 1015.8
20260505175955 63 213 1.0 5.0 0.00 0.00 0.00 74 1016.0
20260505175451 62 256 1.0 3.0 0.00 0.00 0.00 74 1015.9
20260505174948 62 167 0.0 0.0 0.00 0.00 0.00 74 1015.9
20260505174445 62 196 3.0 3.0 0.00 0.00 0.00 75 1015.9
20260505173941 61 194 1.0 1.0 0.00 0.00 0.00 78 1016.0
20260505173438 61 182 3.0 3.0 0.00 0.00 0.00 77 1016.1
20260505172935 60 218 5.0 6.0 0.00 0.00 0.00 78 1016.0
20260505172433 61 280 4.0 5.0 0.00 0.00 0.00 78 1016.1
20260505171932 60 184 1.0 3.0 0.00 0.00 0.00 77 1016.0
20260505171430 61 248 3.0 5.0 0.00 0.00 0.00 76 1016.0
20260505170926 61 147 2.0 3.0 0.00 0.00 0.00 77 1016.1
20260505170423 61 125 0.0 0.0 0.00 0.00 0.00 78 1016.1
20260505165918 60 176 1.0 2.0 0.00 0.00 0.00 78 1016.1
20260505165415 60 200 2.0 3.0 0.00 0.00 0.00 77 1016.2
20260505164910 61 145 2.0 3.0 0.00 0.00 0.00 79 1016.1
20260505164407 60 149 0.0 0.0 0.00 0.00 0.00 78 1016.1
20260505163905 60 166 3.0 3.0 0.00 0.00 0.00 80 1016.0
20260505163404 59 167 4.0 5.0 0.00 0.00 0.00 81 1016.0
20260505162902 60 187 0.0 0.0 0.00 0.00 0.00 80 1016.0
20260505162357 59 127 0.0 0.0 0.00 0.00 0.00 82 1015.8
20260505161855 59 173 3.0 5.0 0.00 0.00 0.00 81 1015.9
20260505161351 59 185 5.0 7.0 0.00 0.00 0.00 81 1016.0
20260505160849 60 156 3.0 3.0 0.00 0.00 0.00 80 1015.9
20260505160347 58 176 0.0 0.0 0.00 0.00 0.00 82 1015.9
20260505153326 59 128 3.0 5.0 0.00 0.00 0.00 80 1015.9
20260505152822 58 205 4.0 5.0 0.00 0.00 0.00 81 1015.8
20260505152319 58 218 5.0 6.0 0.00 0.00 0.00 81 1015.8
20260505151814 58 194 2.0 2.0 0.00 0.00 0.00 80 1015.6
20260505151311 59 213 0.0 1.0 0.00 0.00 0.00 79 1015.8
20260505150808 58 248 3.0 5.0 0.00 0.00 0.00 81 1015.6
20260505150305 58 222 0.0 0.0 0.00 0.00 0.00 81 1015.6
20260505140229 57 126 3.0 3.0 0.00 0.00 0.00 82 1015.0
20260505130153 56 128 0.0 0.0 0.00 0.00 0.00 82 1014.3
20260505124643 56 116 0.0 0.0 0.00 0.00 0.00 79 1014.2
20260505124139 56 118 0.0 0.0 0.00 0.00 0.00 79 1014.1
20260505123635 56 122 0.0 0.0 0.00 0.00 0.00 78 1013.9
20260505123132 57 117 0.0 0.0 0.00 0.00 0.00 77 1013.9
20260505122629 57 124 0.0 0.0 0.00 0.00 0.00 76 1014.0
20260505122126 57 121 0.0 0.0 0.00 0.00 0.00 76 1013.9
20260505121622 57 122 0.0 0.0 0.00 0.00 0.00 76 1013.8
20260505121119 57 116 0.0 0.0 0.00 0.00 0.00 76 1013.9
20260505120615 57 116 0.0 0.0 0.00 0.00 0.00 76 1013.7
20260505120112 57 120 0.0 0.0 0.00 0.00 0.00 76 1013.6
20260505115606 57 113 0.0 0.0 0.00 0.00 0.00 77 1013.7
20260505115104 57 108 0.0 0.0 0.00 0.00 0.00 76 1013.6
20260505114601 57 101 0.0 0.0 0.00 0.00 0.00 76 1013.5
20260505114057 57 121 0.0 0.0 0.00 0.00 0.00 76 1013.4
20260505113553 57 61 1.0 1.0 0.00 0.00 0.00 76 1013.5
20260505113050 56 110 0.0 0.0 0.00 0.00 0.00 77 1013.4
20260505112546 56 113 0.0 0.0 0.00 0.00 0.00 80 1013.0
20260505112044 55 112 0.0 0.0 0.00 0.00 0.00 81 1013.3
20260505111538 55 113 0.0 0.0 0.00 0.00 0.00 82 1013.3
20260505111035 55 105 0.0 0.0 0.00 0.00 0.00 82 1013.2
20260505110531 55 108 0.0 1.0 0.00 0.00 0.00 83 1013.2
20260505102004 57 120 0.0 0.0 0.00 0.00 0.00 79 1012.7
20260505101501 57 120 0.0 0.0 0.00 0.00 0.00 79 1012.7
20260505100958 57 120 0.0 0.0 0.00 0.00 0.00 79 1012.3
20260505100455 57 119 0.0 0.0 0.00 0.00 0.00 79 1012.3
20260505095951 57 119 0.0 0.0 0.00 0.00 0.00 78 1012.4
20260505095448 57 138 0.0 0.0 0.00 0.00 0.00 78 1012.2
20260505094944 58 144 0.0 0.0 0.00 0.00 0.00 77 1012.3
20260505094441 57 129 1.0 1.0 0.00 0.00 0.00 77 1012.2
20260505093937 58 162 0.0 0.0 0.00 0.00 0.00 79 1012.1
20260505093434 58 131 0.0 0.0 0.00 0.00 0.00 79 1012.1
20260505092931 58 129 0.0 0.0 0.00 0.00 0.00 79 1012.0
20260505092429 58 138 0.0 0.0 0.00 0.00 0.00 79 1012.1
20260505091926 59 173 0.0 0.0 0.00 0.00 0.00 78 1012.1
20260505091423 59 174 0.0 0.0 0.00 0.00 0.00 77 1011.9
20260505090921 59 175 0.0 0.0 0.00 0.00 0.00 76 1011.9
20260505090420 60 175 0.0 0.0 0.00 0.00 0.00 75 1011.8
20260505085916 60 165 0.0 0.0 0.00 0.00 0.00 75 1011.7
20260505085414 60 130 0.0 0.0 0.00 0.00 0.00 74 1011.6
20260505084912 61 130 0.0 0.0 0.00 0.00 0.00 74 1011.4
20260505084410 61 130 0.0 0.0 0.00 0.00 0.00 73 1011.4
20260505083908 61 130 0.0 0.0 0.00 0.00 0.00 73 1011.6
20260505083405 61 130 0.0 0.0 0.00 0.00 0.00 72 1011.3
20260505082901 62 130 0.0 0.0 0.00 0.00 0.00 71 1011.5
20260505082357 62 130 0.0 0.0 0.00 0.00 0.00 71 1011.5
20260505081854 62 130 0.0 0.0 0.00 0.00 0.00 70 1011.4
20260505081351 62 130 0.0 0.0 0.00 0.00 0.00 70 1011.2
20260505080848 62 130 0.0 0.0 0.00 0.00 0.00 71 1011.3
20260505080344 62 130 0.0 0.0 0.00 0.00 0.00 70 1011.2
20260505075839 62 130 0.0 0.0 0.00 0.00 0.00 70 1011.2
20260505075336 62 130 0.0 0.0 0.00 0.00 0.00 69 1011.2
20260505074833 63 130 0.0 0.0 0.00 0.00 0.00 68 1011.2
20260505074331 63 130 0.0 0.0 0.00 0.00 0.00 68 1011.0
20260505073828 63 129 0.0 0.0 0.00 0.00 0.00 67 1011.1
20260505073326 63 123 0.0 0.0 0.00 0.00 0.00 67 1010.9
20260505072822 63 144 0.0 0.0 0.00 0.00 0.00 67 1010.8
20260505072319 64 144 0.0 0.0 0.00 0.00 0.00 66 1010.8
20260505071815 64 137 0.0 0.0 0.00 0.00 0.00 65 1010.8
20260505071311 64 121 0.0 0.0 0.00 0.00 0.00 65 1010.5
20260505070810 64 120 0.0 0.0 0.00 0.00 0.00 64 1010.4
20260505070306 64 121 0.0 0.0 0.00 0.00 0.00 64 1010.4
20260505065801 64 121 0.0 0.0 0.00 0.00 0.00 64 1010.5
20260505065258 64 122 0.0 0.0 0.00 0.00 0.00 63 1010.4
20260505064755 64 126 0.0 0.0 0.00 0.00 0.00 63 1010.5
20260505064252 64 125 0.0 0.0 0.00 0.00 0.00 63 1010.4
20260505063750 65 133 0.0 0.0 0.00 0.00 0.00 63 1010.5
20260505063246 65 114 0.0 0.0 0.00 0.00 0.00 62 1010.3
20260505062742 65 116 0.0 0.0 0.00 0.00 0.00 62 1010.4
20260505062240 65 116 0.0 0.0 0.00 0.00 0.00 62 1010.2
20260505061737 65 119 0.0 0.0 0.00 0.00 0.00 61 1010.2
20260505061235 65 104 0.0 0.0 0.00 0.00 0.00 63 1010.3
20260505060732 66 103 0.0 0.0 0.00 0.00 0.00 61 1010.1
20260505060229 66 104 0.0 0.0 0.00 0.00 0.00 60 1010.1
20260505055724 66 104 0.0 0.0 0.00 0.00 0.00 60 1010.3
20260505055221 67 104 0.0 0.0 0.00 0.00 0.00 59 1010.1